Location: Hains Lake
(37.8540°N, 99.8578°W)
Time: 01:03:14
(UTC+00:00)

Vanguard 1 - Visible Passes

Search period start: 01 December 2021 00:00
Search period end: 11 December 2021 00:00
Orbit: 653 x 3830 km, 34.3° (Epoch: 30 November)

Date Brightness Start Highest point End Pass type
(mag) Time Alt. Az. Time Alt. Az. Time Alt. Az.
01 Dec 13.8 03:47:05 10° S 03:48:10 12° S 03:48:10 12° S visible
01 Dec 13.8 06:42:41 18° E 06:42:41 18° E 06:45:58 10° E visible
01 Dec 12.5 08:55:23 69° ESE 08:55:23 69° ESE 09:09:21 10° E visible
01 Dec 12.2 11:08:05 38° W 11:17:57 73° SSW 11:30:33 10° ESE visible
02 Dec 13.8 04:05:47 10° S 04:07:48 14° S 04:07:48 14° S visible
02 Dec 13.6 07:02:17 24° E 07:02:17 24° E 07:07:22 10° E visible
02 Dec 12.4 09:14:58 78° SE 09:14:58 78° SE 09:30:27 10° E visible
02 Dec 12.2 11:27:40 32° W 11:39:07 67° SSW 11:51:18 10° ESE visible
03 Dec 13.8 04:25:10 10° SSW 04:27:29 15° SSW 04:27:29 15° SSW visible
03 Dec 13.5 07:21:52 30° E 07:21:52 30° E 07:28:42 10° E visible
03 Dec 12.4 09:34:33 79° SSW 09:35:18 80° S 09:51:31 10° E visible
03 Dec 12.3 11:47:15 26° W 12:00:07 60° SSW 12:11:53 10° SE visible
04 Dec 13.6 02:31:16 10° SSE 02:34:30 14° SSE 02:34:30 14° SSE visible
04 Dec 13.8 04:45:01 10° SSW 05:28:45 - ENE 04:47:12 16° SSW visible
04 Dec 13.3 07:41:27 37° E 07:41:27 37° E 07:49:59 10° E visible
04 Dec 12.4 09:54:09 72° WSW 09:56:48 78° S 10:12:32 10° ESE visible
04 Dec 12.4 12:06:51 20° W 12:20:55 51° SSW 12:32:16 10° SE visible
05 Dec 13.5 02:48:45 10° S 02:54:15 19° SSE 02:54:15 19° SSE visible
05 Dec 13.8 05:05:15 10° SW 05:48:22 - ENE 05:06:58 15° SW visible
05 Dec 13.1 08:01:03 45° E 08:01:03 45° E 08:11:14 10° E visible
05 Dec 12.4 10:13:45 62° WSW 10:18:13 74° SSW 10:33:27 10° ESE visible
05 Dec 12.6 12:26:27 15° W 12:41:31 42° SW 12:52:25 10° SSE visible
06 Dec 13.3 03:07:28 10° S 03:14:03 24° SSE 03:14:03 24° SSE visible
06 Dec 13.9 05:25:46 10° SW 06:07:59 10° E 06:08:04 10° E visible
06 Dec 12.9 08:20:41 53° ESE 08:20:41 53° ESE 08:32:27 10° E visible
06 Dec 12.4 10:33:23 53° WSW 10:39:29 69° SSW 10:54:15 10° ESE visible
06 Dec 12.8 12:46:04 11° W 13:01:55 34° SW 13:12:14 10° SSE visible
07 Dec 13.2 03:26:52 10° SSW 03:33:52 28° S 03:33:52 28° S visible
07 Dec 14.0 05:46:31 10° WSW 06:27:38 15° E 06:29:32 10° E visible
07 Dec 12.8 08:40:19 61° ESE 08:40:19 61° ESE 08:53:38 10° E visible
07 Dec 12.5 10:53:01 45° W 11:00:35 62° SSW 11:14:53 10° SE visible
07 Dec 13.0 13:08:21 10° W 13:22:09 26° SW 13:31:33 10° S visible
08 Dec 13.4 01:33:56 10° SSE 01:40:59 15° SE 01:40:59 15° SE visible
08 Dec 13.2 03:46:43 10° SSW 03:53:42 31° SSW 03:53:42 31° SSW visible
08 Dec 13.8 06:47:17 19° E 06:47:17 19° E 06:50:57 10° E visible
08 Dec 12.6 08:59:59 68° SE 08:59:59 68° SE 09:14:45 10° ESE visible
08 Dec 12.6 11:12:41 37° W 11:21:29 54° SSW 11:35:18 10° SE visible
09 Dec 13.2 01:51:12 10° S 02:00:49 22° SE 02:00:49 22° SE visible
09 Dec 13.2 04:06:55 10° SW 04:13:33 32° SSW 04:13:33 32° SSW visible
09 Dec 13.7 07:06:58 25° E 07:06:58 25° E 07:12:21 10° E visible
09 Dec 12.6 09:19:40 72° SSE 09:19:40 72° SSE 09:35:45 10° ESE visible
09 Dec 12.7 11:32:23 30° W 11:42:11 45° SW 11:55:28 10° SSE visible
10 Dec 13.0 02:09:53 10° S 02:20:41 29° SE 02:20:41 29° SE visible
10 Dec 13.2 04:27:23 10° SW 04:33:23 30° SW 04:33:23 30° SW visible
10 Dec 13.5 07:26:41 30° E 07:26:41 30° E 07:33:43 10° E visible
10 Dec 12.5 09:39:23 70° SSW 09:39:23 70° SSW 09:56:37 10° ESE visible
10 Dec 12.9 11:52:06 24° W 12:02:40 37° SW 12:15:18 10° SSE visible
